Retour au catalogue

STARLINK-11566

ActifCommunicationsVLEO
NORAD 62914·PAYLOAD·🇺🇸 United States

Lancé Feb 8, 2025 depuis Cape Canaveral Space Force Station

Loading…

Prochains Passages (prochaines 24 heures)

TLE

FraisSource: CelesTrak SupGP

Époque: Sep 15, 2026, 03:14 UTC

1 62914C 25027H   26258.13520833  .00052055  00000+0  40416-3 0  2588
2 62914  43.0004 286.0048 0001500 247.9727 129.4399 15.70822068    14

Suivez STARLINK-11566 en temps réel avec AllMySat

Download on the App Store